Time,TemperatureF,DewpointF,PressureIn,WindDirection,WindDirectionDegrees,WindSpeedMPH,WindSpeedGustMPH,Humidity,HourlyPrecipIn,Conditions,Clouds,dailyrainin,SoftwareType,DateUTC
2013-04-29 00:01:00,56.1,48.0,29.97,ENE,69,2.0,8.0,74,0.00,,,0.14,meteohub,2013-04-29 04:01:00,
2013-04-29 00:02:00,56.1,48.0,29.96,WSW,248,0.0,8.0,74,0.00,,,0.14,meteohub,2013-04-29 04:02:00,
2013-04-29 00:03:00,56.1,48.0,29.96,West,271,1.0,8.0,74,0.00,,,0.14,meteohub,2013-04-29 04:03:00,
2013-04-29 00:08:00,56.1,47.7,29.97,WNW,291,5.0,8.0,73,0.00,,,0.00,meteohub,2013-04-29 04:08:00,
2013-04-29 00:13:00,56.1,47.7,29.96,ENE,73,0.0,8.0,73,0.00,,,0.00,meteohub,2013-04-29 04:13:00,
2013-04-29 00:18:00,56.5,48.0,29.96,East,83,3.0,8.0,73,0.00,,,0.00,meteohub,2013-04-29 04:18:00,
2013-04-29 00:23:00,56.7,47.7,29.96,East,93,1.0,7.0,72,0.00,,,0.00,meteohub,2013-04-29 04:23:00,
2013-04-29 00:28:00,56.8,47.8,29.96,South,181,3.0,14.0,72,0.00,,,0.00,meteohub,2013-04-29 04:28:00,
2013-04-29 00:33:00,56.7,47.7,29.96,East,95,4.0,14.0,72,0.00,,,0.00,meteohub,2013-04-29 04:33:00,
2013-04-29 00:38:00,56.8,47.5,29.96,SSE,160,5.0,14.0,71,0.00,,,0.00,meteohub,2013-04-29 04:38:00,
2013-04-29 00:43:00,56.8,47.5,29.96,WNW,293,2.0,12.0,71,0.00,,,0.00,meteohub,2013-04-29 04:43:00,
2013-04-29 00:48:00,56.8,47.5,29.96,SSW,208,3.0,17.0,71,0.00,,,0.00,meteohub,2013-04-29 04:48:00,
2013-04-29 00:54:00,56.8,47.5,29.96,WNW,290,4.0,17.0,71,0.00,,,0.00,meteohub,2013-04-29 04:54:00,
2013-04-29 00:59:00,57.0,47.7,29.96,SSE,148,0.0,8.0,71,0.00,,,0.00,meteohub,2013-04-29 04:59:00,
2013-04-29 01:04:00,57.0,47.7,29.96,SW,217,0.0,10.0,71,0.00,,,0.00,meteohub,2013-04-29 05:04:00,
2013-04-29 01:09:00,57.0,47.7,29.96,ESE,123,3.0,10.0,71,0.00,,,0.00,meteohub,2013-04-29 05:09:00,
2013-04-29 01:14:00,56.8,47.5,29.96,SSE,158,3.0,8.0,71,0.00,,,0.00,meteohub,2013-04-29 05:14:00,
2013-04-29 01:19:00,57.0,47.7,29.96,WSW,258,2.0,11.0,71,0.00,,,0.00,meteohub,2013-04-29 05:19:00,
2013-04-29 01:24:00,57.0,47.7,29.96,SE,129,7.0,11.0,71,0.00,,,0.00,meteohub,2013-04-29 05:24:00,
2013-04-29 01:29:00,57.0,47.7,29.96,West,271,2.0,14.0,71,0.00,,,0.00,meteohub,2013-04-29 05:29:00,
2013-04-29 01:34:00,57.0,47.3,29.97,West,264,1.0,14.0,70,0.00,,,0.00,meteohub,2013-04-29 05:34:00,
2013-04-29 01:39:00,57.0,47.3,29.97,SSW,193,5.0,14.0,70,0.00,,,0.00,meteohub,2013-04-29 05:39:00,
2013-04-29 01:44:00,57.0,47.3,29.96,ENE,72,7.0,11.0,70,0.00,,,0.00,meteohub,2013-04-29 05:44:00,
2013-04-29 01:49:00,57.0,47.3,29.96,SSW,204,1.0,8.0,70,0.00,,,0.00,meteohub,2013-04-29 05:49:00,
2013-04-29 01:54:00,57.2,47.1,29.96,SE,129,2.0,8.0,69,0.00,,,0.00,meteohub,2013-04-29 05:54:00,
2013-04-29 02:00:00,57.2,47.5,29.96,East,84,5.0,10.0,70,0.00,,,0.00,meteohub,2013-04-29 06:00:00,
2013-04-29 02:05:00,57.0,47.3,29.96,NE,51,5.0,10.0,70,0.00,,,0.00,meteohub,2013-04-29 06:05:00,
2013-04-29 02:10:00,56.8,47.1,29.96,SSW,200,3.0,14.0,70,0.00,,,0.00,meteohub,2013-04-29 06:10:00,
2013-04-29 02:15:00,56.8,47.1,29.96,East,85,6.0,14.0,70,0.00,,,0.00,meteohub,2013-04-29 06:15:00,
2013-04-29 02:20:00,56.8,47.1,29.95,SE,134,7.0,14.0,70,0.00,,,0.00,meteohub,2013-04-29 06:20:00,
2013-04-29 02:25:00,57.0,47.3,29.95,WNW,297,3.0,12.0,70,0.00,,,0.00,meteohub,2013-04-29 06:25:00,
2013-04-29 02:30:00,56.8,47.1,29.95,ENE,77,2.0,12.0,70,0.00,,,0.00,meteohub,2013-04-29 06:30:00,
2013-04-29 02:35:00,56.8,47.1,29.95,ENE,67,7.0,11.0,70,0.00,,,0.00,meteohub,2013-04-29 06:35:00,
2013-04-29 02:40:00,56.7,46.9,29.95,ENE,68,4.0,11.0,70,0.00,,,0.00,meteohub,2013-04-29 06:40:00,
2013-04-29 02:46:00,56.7,47.3,29.95,East,81,6.0,11.0,71,0.00,,,0.00,meteohub,2013-04-29 06:46:00,
2013-04-29 02:51:00,56.7,47.3,29.95,SE,124,2.0,10.0,71,0.00,,,0.00,meteohub,2013-04-29 06:51:00,
2013-04-29 02:56:00,56.8,47.5,29.94,East,93,1.0,10.0,71,0.00,,,0.00,meteohub,2013-04-29 06:56:00,
2013-04-29 03:01:00,56.8,47.5,29.94,East,98,12.0,12.0,71,0.00,,,0.00,meteohub,2013-04-29 07:01:00,
2013-04-29 03:06:00,56.8,47.1,29.94,SSE,149,2.0,12.0,70,0.00,,,0.00,meteohub,2013-04-29 07:06:00,
2013-04-29 03:11:00,56.8,47.5,29.94,South,184,2.0,12.0,71,0.00,,,0.00,meteohub,2013-04-29 07:11:00,
2013-04-29 03:16:00,57.0,47.3,29.94,East,94,10.0,12.0,70,0.00,,,0.00,meteohub,2013-04-29 07:16:00,
2013-04-29 03:21:00,57.2,47.5,29.94,ESE,122,7.0,17.0,70,0.00,,,0.00,meteohub,2013-04-29 07:21:00,
2013-04-29 03:26:00,57.0,47.3,29.95,West,279,1.0,17.0,70,0.00,,,0.00,meteohub,2013-04-29 07:26:00,
2013-04-29 03:31:00,57.0,47.3,29.95,SW,235,1.0,17.0,70,0.00,,,0.00,meteohub,2013-04-29 07:31:00,
2013-04-29 03:36:00,56.8,47.5,29.95,ENE,76,0.0,12.0,71,0.00,,,0.00,meteohub,2013-04-29 07:36:00,
2013-04-29 03:41:00,56.7,47.3,29.95,ESE,109,2.0,7.0,71,0.00,,,0.00,meteohub,2013-04-29 07:41:00,
2013-04-29 03:46:00,56.5,47.5,29.95,SW,214,1.0,8.0,72,0.00,,,0.00,meteohub,2013-04-29 07:46:00,
2013-04-29 03:51:00,56.1,47.3,29.95,West,271,4.0,8.0,72,0.00,,,0.00,meteohub,2013-04-29 07:51:00,
2013-04-29 03:57:00,56.1,47.3,29.95,ENE,75,3.0,8.0,72,0.00,,,0.00,meteohub,2013-04-29 07:57:00,
2013-04-29 04:02:00,56.1,47.7,29.95,SSE,148,0.0,8.0,73,0.00,,,0.00,meteohub,2013-04-29 08:02:00,
2013-04-29 04:07:00,55.9,47.5,29.95,ESE,110,0.0,8.0,73,0.00,,,0.00,meteohub,2013-04-29 08:07:00,
2013-04-29 04:12:00,56.1,47.7,29.95,ESE,108,2.0,8.0,73,0.00,,,0.00,meteohub,2013-04-29 08:12:00,
2013-04-29 04:17:00,55.9,47.5,29.95,ESE,119,2.0,7.0,73,0.00,,,0.00,meteohub,2013-04-29 08:17:00,
2013-04-29 04:22:00,56.1,47.7,29.95,SE,137,0.0,5.0,73,0.00,,,0.00,meteohub,2013-04-29 08:22:00,
2013-04-29 04:27:00,56.7,48.0,29.95,West,270,0.0,5.0,73,0.00,,,0.00,meteohub,2013-04-29 08:27:00,
2013-04-29 04:32:00,56.8,47.8,29.95,ENE,70,3.0,5.0,72,0.00,,,0.00,meteohub,2013-04-29 08:32:00,
2013-04-29 04:37:00,56.5,48.0,29.95,NNW,343,0.0,6.0,73,0.00,,,0.00,meteohub,2013-04-29 08:37:00,
2013-04-29 04:42:00,56.8,47.8,29.95,West,278,0.0,6.0,72,0.00,,,0.00,meteohub,2013-04-29 08:42:00,
2013-04-29 04:47:00,56.7,48.0,29.95,ENE,74,2.0,5.0,73,0.00,,,0.00,meteohub,2013-04-29 08:47:00,
2013-04-29 04:52:00,57.0,48.0,29.95,ENE,71,1.0,5.0,72,0.00,,,0.00,meteohub,2013-04-29 08:52:00,
2013-04-29 04:57:00,57.4,48.4,29.95,SSE,150,1.0,5.0,72,0.00,,,0.00,meteohub,2013-04-29 08:57:00,
2013-04-29 05:02:00,57.6,48.2,29.95,West,270,0.0,6.0,71,0.00,,,0.00,meteohub,2013-04-29 09:02:00,
2013-04-29 05:07:00,57.9,48.6,29.95,ESE,112,2.0,6.0,71,0.00,,,0.00,meteohub,2013-04-29 09:07:00,
2013-04-29 05:12:00,57.9,48.6,29.95,SW,226,4.0,4.0,71,0.00,,,0.00,meteohub,2013-04-29 09:12:00,
2013-04-29 05:17:00,58.1,48.4,29.94,South,179,0.0,8.0,70,0.00,,,0.00,meteohub,2013-04-29 09:17:00,
2013-04-29 05:22:00,57.9,48.6,29.95,SE,127,1.0,8.0,71,0.00,,,0.00,meteohub,2013-04-29 09:22:00,
2013-04-29 05:27:00,57.7,48.4,29.94,East,80,6.0,8.0,71,0.00,,,0.00,meteohub,2013-04-29 09:27:00,
2013-04-29 05:32:00,57.6,48.2,29.95,East,92,3.0,12.0,71,0.00,,,0.00,meteohub,2013-04-29 09:32:00,
2013-04-29 05:37:00,57.7,48.4,29.94,North,9,0.0,12.0,71,0.00,,,0.00,meteohub,2013-04-29 09:37:00,
2013-04-29 05:42:00,57.6,48.2,29.95,East,96,1.0,12.0,71,0.00,,,0.00,meteohub,2013-04-29 09:42:00,
2013-04-29 05:47:00,57.6,48.6,29.95,ESE,122,0.0,6.0,72,0.00,,,0.00,meteohub,2013-04-29 09:47:00,
2013-04-29 05:52:00,57.6,48.2,29.95,SE,127,5.0,8.0,71,0.00,,,0.00,meteohub,2013-04-29 09:52:00,
2013-04-29 05:57:00,57.6,48.2,29.95,North,4,0.0,8.0,71,0.00,,,0.00,meteohub,2013-04-29 09:57:00,
2013-04-29 06:02:00,57.4,48.0,29.95,West,270,1.0,6.0,71,0.00,,,0.00,meteohub,2013-04-29 10:02:00,
2013-04-29 06:07:00,57.4,48.4,29.96,NE,36,1.0,6.0,72,0.00,,,0.00,meteohub,2013-04-29 10:07:00,
2013-04-29 06:12:00,57.2,48.2,29.96,WSW,238,0.0,2.0,72,0.00,,,0.00,meteohub,2013-04-29 10:12:00,
2013-04-29 06:17:00,57.0,48.0,29.96,SSE,150,1.0,4.0,72,0.00,,,0.00,meteohub,2013-04-29 10:17:00,
2013-04-29 06:22:00,57.0,48.4,29.96,ESE,107,2.0,4.0,73,0.00,,,0.00,meteohub,2013-04-29 10:22:00,
2013-04-29 06:27:00,57.0,48.0,29.96,West,270,0.0,4.0,72,0.00,,,0.00,meteohub,2013-04-29 10:27:00,
2013-04-29 06:32:00,57.0,48.4,29.96,SSE,163,0.0,4.0,73,0.00,,,0.00,meteohub,2013-04-29 10:32:00,
2013-04-29 06:37:00,56.8,48.2,29.96,SW,214,1.0,4.0,73,0.00,,,0.00,meteohub,2013-04-29 10:37:00,
2013-04-29 06:42:00,56.8,48.2,29.97,East,98,1.0,4.0,73,0.00,,,0.00,meteohub,2013-04-29 10:42:00,
2013-04-29 06:47:00,57.0,48.4,29.97,East,94,0.0,3.0,73,0.00,,,0.00,meteohub,2013-04-29 10:47:00,
2013-04-29 06:52:00,57.2,48.6,29.97,SSE,160,0.0,3.0,73,0.00,,,0.00,meteohub,2013-04-29 10:52:00,
2013-04-29 06:57:00,57.4,48.4,29.97,ENE,78,0.0,2.0,72,0.00,,,0.00,meteohub,2013-04-29 10:57:00,
2013-04-29 07:02:00,57.6,48.6,29.97,East,83,0.0,1.0,72,0.00,,,0.00,meteohub,2013-04-29 11:02:00,
2013-04-29 07:07:00,57.7,48.7,29.98,SE,145,0.0,3.0,72,0.00,,,0.00,meteohub,2013-04-29 11:07:00,
2013-04-29 07:12:00,57.9,48.9,29.98,ESE,110,0.0,3.0,72,0.00,,,0.00,meteohub,2013-04-29 11:12:00,
2013-04-29 07:17:00,58.1,48.7,29.98,East,79,0.0,4.0,71,0.00,,,0.00,meteohub,2013-04-29 11:17:00,
2013-04-29 07:22:00,58.3,48.9,29.98,ESE,121,1.0,4.0,71,0.00,,,0.00,meteohub,2013-04-29 11:22:00,
2013-04-29 07:27:00,58.5,49.1,29.98,East,96,0.0,4.0,71,0.00,,,0.00,meteohub,2013-04-29 11:27:00,
2013-04-29 07:32:00,58.5,49.1,29.98,ESE,113,1.0,4.0,71,0.00,,,0.00,meteohub,2013-04-29 11:32:00,
2013-04-29 07:37:00,58.6,49.3,29.98,ESE,110,2.0,4.0,71,0.00,,,0.00,meteohub,2013-04-29 11:37:00,
2013-04-29 07:42:00,58.8,49.1,29.98,East,101,2.0,4.0,70,0.00,,,0.00,meteohub,2013-04-29 11:42:00,
2013-04-29 07:47:00,59.2,49.5,29.98,East,100,1.0,4.0,70,0.00,,,0.00,meteohub,2013-04-29 11:47:00,
2013-04-29 07:52:00,59.2,49.5,29.98,West,260,0.0,4.0,70,0.00,,,0.00,meteohub,2013-04-29 11:52:00,
2013-04-29 07:57:00,59.2,49.5,29.98,East,79,0.0,4.0,70,0.00,,,0.00,meteohub,2013-04-29 11:57:00,
2013-04-29 08:02:00,58.8,49.1,29.98,ENE,78,3.0,4.0,70,0.00,,,0.00,meteohub,2013-04-29 12:02:00,
2013-04-29 08:07:00,58.8,49.1,29.99,East,91,0.0,3.0,70,0.00,,,0.00,meteohub,2013-04-29 12:07:00,
2013-04-29 08:12:00,58.8,49.1,29.99,ESE,113,0.0,3.0,70,0.00,,,0.00,meteohub,2013-04-29 12:12:00,
2013-04-29 08:17:00,59.2,49.8,29.99,WSW,238,0.0,5.0,71,0.00,,,0.00,meteohub,2013-04-29 12:17:00,
2013-04-29 08:22:00,59.4,49.6,29.99,East,98,3.0,5.0,70,0.00,,,0.00,meteohub,2013-04-29 12:22:00,
2013-04-29 08:27:00,60.1,50.2,29.99,West,266,1.0,5.0,70,0.00,,,0.00,meteohub,2013-04-29 12:27:00,
2013-04-29 08:32:00,60.4,49.8,29.99,SSE,149,0.0,5.0,68,0.00,,,0.00,meteohub,2013-04-29 12:32:00,
2013-04-29 08:37:00,60.6,49.6,29.99,ESE,108,2.0,5.0,67,0.00,,,0.00,meteohub,2013-04-29 12:37:00,
2013-04-29 08:42:00,60.6,50.0,29.99,ESE,123,1.0,5.0,68,0.00,,,0.00,meteohub,2013-04-29 12:42:00,
2013-04-29 08:47:00,60.6,49.6,29.99,SSE,153,2.0,7.0,67,0.00,,,0.00,meteohub,2013-04-29 12:47:00,
2013-04-29 08:52:00,60.4,49.8,29.99,ENE,76,0.0,7.0,68,0.00,,,0.00,meteohub,2013-04-29 12:52:00,
2013-04-29 08:57:00,60.4,49.8,29.99,South,176,0.0,7.0,68,0.00,,,0.00,meteohub,2013-04-29 12:57:00,
2013-04-29 09:02:00,60.6,50.0,29.99,East,98,0.0,5.0,68,0.00,,,0.00,meteohub,2013-04-29 13:02:00,
2013-04-29 09:07:00,60.6,50.0,29.99,SE,135,1.0,5.0,68,0.00,,,0.00,meteohub,2013-04-29 13:07:00,
2013-04-29 09:12:00,61.0,50.7,29.99,SSE,158,1.0,5.0,69,0.00,,,0.00,meteohub,2013-04-29 13:12:00,
2013-04-29 09:17:00,61.2,50.5,29.99,ENE,58,2.0,6.0,68,0.00,,,0.00,meteohub,2013-04-29 13:17:00,
2013-04-29 09:22:00,61.3,50.7,29.99,SE,145,1.0,6.0,68,0.00,,,0.00,meteohub,2013-04-29 13:22:00,
2013-04-29 09:27:00,61.3,51.1,29.99,SE,145,0.0,6.0,69,0.00,,,0.00,meteohub,2013-04-29 13:27:00,
2013-04-29 09:32:00,61.3,50.7,29.99,South,176,1.0,6.0,68,0.00,,,0.00,meteohub,2013-04-29 13:32:00,
2013-04-29 09:37:00,61.3,50.4,29.99,East,90,1.0,6.0,67,0.00,,,0.00,meteohub,2013-04-29 13:37:00,
2013-04-29 09:42:00,61.2,50.9,29.99,East,84,2.0,4.0,69,0.00,,,0.00,meteohub,2013-04-29 13:42:00,
2013-04-29 09:47:00,61.0,50.0,29.99,South,188,1.0,4.0,67,0.00,,,0.00,meteohub,2013-04-29 13:47:00,
2013-04-29 09:52:00,61.0,50.4,29.99,SE,130,0.0,6.0,68,0.00,,,0.00,meteohub,2013-04-29 13:52:00,
2013-04-29 09:57:00,60.8,50.5,29.99,ESE,108,0.0,6.0,69,0.00,,,0.00,meteohub,2013-04-29 13:57:00,
2013-04-29 10:02:00,60.8,50.5,29.99,ENE,72,1.0,5.0,69,0.00,,,0.00,meteohub,2013-04-29 14:02:00,
2013-04-29 10:07:00,60.8,50.9,29.99,NW,309,0.0,4.0,70,0.00,,,0.00,meteohub,2013-04-29 14:07:00,
2013-04-29 10:12:00,60.6,50.4,29.99,ENE,68,4.0,4.0,69,0.00,,,0.00,meteohub,2013-04-29 14:12:00,
2013-04-29 10:17:00,60.6,50.7,29.99,SW,231,0.0,5.0,70,0.00,,,0.00,meteohub,2013-04-29 14:17:00,
2013-04-29 10:22:00,60.6,51.1,30.00,West,271,0.0,5.0,71,0.00,,,0.00,meteohub,2013-04-29 14:22:00,
2013-04-29 10:27:00,60.4,51.8,30.00,West,260,3.0,5.0,73,0.00,,,0.00,meteohub,2013-04-29 14:27:00,
2013-04-29 10:32:00,59.5,52.3,30.00,SW,231,4.0,4.0,77,0.00,,,0.00,meteohub,2013-04-29 14:32:00,
2013-04-29 10:37:00,58.5,52.7,30.01,WSW,242,4.0,7.0,81,0.01,,,0.01,meteohub,2013-04-29 14:37:00,
2013-04-29 10:42:00,57.6,52.5,30.01,WSW,247,1.0,7.0,83,0.01,,,0.01,meteohub,2013-04-29 14:42:00,
2013-04-29 10:47:00,57.0,52.5,30.01,WNW,285,1.0,7.0,85,0.02,,,0.02,meteohub,2013-04-29 14:47:00,
2013-04-29 10:52:00,56.7,52.5,30.01,WSW,249,0.0,7.0,86,0.03,,,0.03,meteohub,2013-04-29 14:52:00,
2013-04-29 10:57:00,56.5,52.9,30.01,West,269,0.0,5.0,88,0.03,,,0.03,meteohub,2013-04-29 14:57:00,
2013-04-29 11:02:00,56.5,53.2,30.01,East,98,0.0,3.0,89,0.04,,,0.04,meteohub,2013-04-29 15:02:00,
2013-04-29 11:07:00,56.5,53.2,30.01,SSW,213,0.0,3.0,89,0.04,,,0.04,meteohub,2013-04-29 15:07:00,
2013-04-29 11:12:00,56.7,53.8,30.01,East,89,0.0,1.0,90,0.04,,,0.04,meteohub,2013-04-29 15:12:00,
2013-04-29 11:17:00,56.7,53.8,30.01,WSW,249,0.0,2.0,90,0.04,,,0.04,meteohub,2013-04-29 15:17:00,
2013-04-29 11:22:00,56.7,53.4,30.01,ESE,109,0.0,2.0,89,0.05,,,0.05,meteohub,2013-04-29 15:22:00,
2013-04-29 11:27:00,56.7,53.8,30.01,ESE,103,0.0,2.0,90,0.05,,,0.05,meteohub,2013-04-29 15:27:00,
2013-04-29 11:32:00,56.8,54.0,30.01,ENE,77,1.0,2.0,90,0.04,,,0.05,meteohub,2013-04-29 15:32:00,
2013-04-29 11:37:00,57.2,54.3,30.01,East,91,0.0,4.0,90,0.04,,,0.05,meteohub,2013-04-29 15:37:00,
2013-04-29 11:42:00,57.6,54.3,30.01,ENE,68,1.0,4.0,89,0.04,,,0.05,meteohub,2013-04-29 15:42:00,
2013-04-29 11:47:00,57.9,54.3,30.01,SE,128,1.0,4.0,88,0.03,,,0.05,meteohub,2013-04-29 15:47:00,
2013-04-29 11:52:00,58.6,55.0,30.01,East,86,4.0,4.0,88,0.02,,,0.05,meteohub,2013-04-29 15:52:00,
2013-04-29 11:57:00,59.4,55.4,30.01,ESE,115,2.0,4.0,87,0.01,,,0.05,meteohub,2013-04-29 15:57:00,
2013-04-29 12:02:00,59.5,55.0,30.01,ESE,103,1.0,4.0,85,0.01,,,0.05,meteohub,2013-04-29 16:02:00,
2013-04-29 12:07:00,59.5,54.7,30.01,ESE,113,4.0,5.0,84,0.01,,,0.05,meteohub,2013-04-29 16:07:00,
2013-04-29 12:12:00,59.5,54.7,30.01,ESE,120,0.0,5.0,84,0.01,,,0.05,meteohub,2013-04-29 16:12:00,
2013-04-29 12:17:00,59.7,55.2,30.01,SW,233,1.0,5.0,85,0.00,,,0.05,meteohub,2013-04-29 16:17:00,
2013-04-29 12:22:00,59.9,55.0,30.01,East,98,3.0,5.0,84,0.00,,,0.05,meteohub,2013-04-29 16:22:00,
2013-04-29 12:27:00,59.7,54.5,30.01,WSW,250,1.0,5.0,83,0.00,,,0.05,meteohub,2013-04-29 16:27:00,
2013-04-29 12:32:00,59.7,54.1,30.00,NE,53,0.0,5.0,82,0.00,,,0.05,meteohub,2013-04-29 16:32:00,
2013-04-29 12:37:00,60.1,54.9,30.00,SSW,200,0.0,5.0,83,0.00,,,0.05,meteohub,2013-04-29 16:37:00,
2013-04-29 12:42:00,60.3,54.7,30.00,SE,142,0.0,5.0,82,0.00,,,0.05,meteohub,2013-04-29 16:42:00,
2013-04-29 12:47:00,60.4,54.9,30.00,ESE,118,0.0,4.0,82,0.00,,,0.05,meteohub,2013-04-29 16:47:00,
2013-04-29 12:52:00,60.3,54.3,30.00,East,79,1.0,4.0,81,0.00,,,0.05,meteohub,2013-04-29 16:52:00,
2013-04-29 12:57:00,60.3,54.3,30.00,ESE,105,1.0,3.0,81,0.00,,,0.05,meteohub,2013-04-29 16:57:00,
2013-04-29 13:02:00,60.1,54.3,30.00,East,98,2.0,4.0,81,0.00,,,0.05,meteohub,2013-04-29 17:02:00,
2013-04-29 13:07:00,59.7,54.1,30.00,ESE,113,0.0,4.0,82,0.00,,,0.05,meteohub,2013-04-29 17:07:00,
2013-04-29 13:12:00,59.7,54.1,29.99,East,100,0.0,4.0,82,0.00,,,0.05,meteohub,2013-04-29 17:12:00,
2013-04-29 13:17:00,59.7,54.1,29.99,SW,214,0.0,4.0,82,0.00,,,0.05,meteohub,2013-04-29 17:17:00,
2013-04-29 13:22:00,59.7,54.5,29.99,WSW,257,0.0,4.0,83,0.00,,,0.05,meteohub,2013-04-29 17:22:00,
2013-04-29 13:27:00,59.7,54.9,29.99,ENE,66,0.0,2.0,84,0.00,,,0.05,meteohub,2013-04-29 17:27:00,
2013-04-29 13:32:00,59.5,54.3,29.99,East,91,1.0,2.0,83,0.00,,,0.05,meteohub,2013-04-29 17:32:00,
2013-04-29 13:37:00,59.5,54.7,29.99,West,281,1.0,2.0,84,0.00,,,0.05,meteohub,2013-04-29 17:37:00,
2013-04-29 13:42:00,59.5,54.3,29.99,West,281,0.0,2.0,83,0.00,,,0.05,meteohub,2013-04-29 17:42:00,
2013-04-29 13:47:00,59.5,54.3,29.99,West,259,0.0,2.0,83,0.00,,,0.05,meteohub,2013-04-29 17:47:00,
2013-04-29 13:53:00,59.5,54.3,29.99,West,276,1.0,1.0,83,0.00,,,0.05,meteohub,2013-04-29 17:53:00,
2013-04-29 13:58:00,59.7,54.5,29.99,West,278,0.0,2.0,83,0.00,,,0.05,meteohub,2013-04-29 17:58:00,
2013-04-29 14:03:00,59.9,54.7,29.99,West,274,0.0,2.0,83,0.00,,,0.05,meteohub,2013-04-29 18:03:00,
2013-04-29 14:08:00,60.3,54.7,29.99,West,274,0.0,2.0,82,0.00,,,0.05,meteohub,2013-04-29 18:08:00,
2013-04-29 14:13:00,60.4,54.9,29.99,West,274,0.0,1.0,82,0.00,,,0.05,meteohub,2013-04-29 18:13:00,
2013-04-29 14:18:00,60.8,55.2,29.99,West,274,0.0,1.0,82,0.00,,,0.05,meteohub,2013-04-29 18:18:00,
2013-04-29 14:23:00,61.2,54.9,29.99,West,274,0.0,0.0,80,0.00,,,0.05,meteohub,2013-04-29 18:23:00,
2013-04-29 14:28:00,61.7,55.0,29.99,East,94,0.0,0.0,79,0.00,,,0.05,meteohub,2013-04-29 18:28:00,
2013-04-29 14:33:00,62.2,55.6,29.99,East,94,0.0,1.0,79,0.00,,,0.05,meteohub,2013-04-29 18:33:00,
2013-04-29 14:38:00,62.8,55.8,29.99,SE,124,0.0,1.0,78,0.00,,,0.05,meteohub,2013-04-29 18:38:00,
2013-04-29 14:44:00,63.5,55.0,29.98,East,88,0.0,1.0,74,0.00,,,0.05,meteohub,2013-04-29 18:44:00,
2013-04-29 14:49:00,64.8,57.0,29.98,NNE,33,1.0,2.0,76,0.00,,,0.05,meteohub,2013-04-29 18:49:00,
2013-04-29 14:54:00,65.8,56.5,29.98,SE,129,0.0,4.0,72,0.00,,,0.05,meteohub,2013-04-29 18:54:00,
2013-04-29 14:59:00,66.4,55.6,29.98,East,85,2.0,4.0,68,0.00,,,0.05,meteohub,2013-04-29 18:59:00,
2013-04-29 15:04:00,66.4,55.6,29.97,ESE,114,2.0,5.0,68,0.00,,,0.05,meteohub,2013-04-29 19:04:00,
2013-04-29 15:09:00,66.7,55.8,29.97,WSW,252,3.0,5.0,68,0.00,,,0.05,meteohub,2013-04-29 19:09:00,
2013-04-29 15:14:00,66.9,56.8,29.97,WNW,292,0.0,5.0,70,0.00,,,0.05,meteohub,2013-04-29 19:14:00,
2013-04-29 15:19:00,66.9,55.6,29.97,SW,219,1.0,5.0,67,0.00,,,0.05,meteohub,2013-04-29 19:19:00,
2013-04-29 15:24:00,66.6,54.9,29.97,WSW,246,0.0,4.0,66,0.00,,,0.05,meteohub,2013-04-29 19:24:00,
2013-04-29 15:29:00,66.6,55.2,29.97,SW,218,0.0,4.0,67,0.00,,,0.05,meteohub,2013-04-29 19:29:00,
2013-04-29 15:35:00,66.4,54.7,29.97,West,273,4.0,4.0,66,0.00,,,0.05,meteohub,2013-04-29 19:35:00,
2013-04-29 15:40:00,66.2,54.9,29.97,West,280,2.0,3.0,67,0.00,,,0.05,meteohub,2013-04-29 19:40:00,
2013-04-29 15:45:00,66.4,53.8,29.96,West,280,3.0,4.0,64,0.00,,,0.05,meteohub,2013-04-29 19:45:00,
2013-04-29 15:50:00,66.4,55.6,29.96,West,270,0.0,6.0,68,0.00,,,0.05,meteohub,2013-04-29 19:50:00,
2013-04-29 15:56:00,66.7,54.1,29.96,SW,232,0.0,6.0,64,0.00,,,0.05,meteohub,2013-04-29 19:56:00,
2013-04-29 16:01:00,67.1,54.9,29.96,West,269,1.0,4.0,65,0.00,,,0.05,meteohub,2013-04-29 20:01:00,
2013-04-29 16:06:00,66.7,54.1,29.96,West,281,0.0,4.0,64,0.00,,,0.05,meteohub,2013-04-29 20:06:00,
2013-04-29 16:11:00,66.7,55.4,29.96,SSW,200,0.0,6.0,67,0.00,,,0.05,meteohub,2013-04-29 20:11:00,
2013-04-29 16:16:00,67.1,54.9,29.96,SSE,157,1.0,6.0,65,0.00,,,0.05,meteohub,2013-04-29 20:16:00,
2013-04-29 16:21:00,67.5,55.2,29.96,SW,233,2.0,6.0,65,0.00,,,0.05,meteohub,2013-04-29 20:21:00,
2013-04-29 16:26:00,67.5,54.0,29.95,West,260,2.0,4.0,62,0.00,,,0.05,meteohub,2013-04-29 20:26:00,
2013-04-29 16:31:00,67.1,53.6,29.95,WSW,252,4.0,4.0,62,0.00,,,0.05,meteohub,2013-04-29 20:31:00,
2013-04-29 16:37:00,66.9,54.3,29.95,WSW,243,1.0,4.0,64,0.00,,,0.05,meteohub,2013-04-29 20:37:00,
2013-04-29 16:42:00,66.6,53.1,29.95,East,83,0.0,4.0,62,0.00,,,0.05,meteohub,2013-04-29 20:42:00,
2013-04-29 16:47:00,66.6,54.5,29.95,WNW,290,0.0,4.0,65,0.00,,,0.05,meteohub,2013-04-29 20:47:00,
2013-04-29 16:52:00,66.4,54.3,29.95,SE,129,0.0,2.0,65,0.00,,,0.05,meteohub,2013-04-29 20:52:00,
2013-04-29 16:57:00,65.7,53.2,29.96,West,266,2.0,5.0,64,0.01,,,0.05,meteohub,2013-04-29 20:57:00,
2013-04-29 17:02:00,64.8,53.1,29.96,West,281,0.0,5.0,66,0.01,,,0.06,meteohub,2013-04-29 21:02:00,
2013-04-29 17:07:00,64.0,54.5,29.96,SW,229,4.0,5.0,71,0.01,,,0.06,meteohub,2013-04-29 21:07:00,
2013-04-29 17:12:00,63.1,54.3,29.96,West,266,0.0,5.0,73,0.01,,,0.06,meteohub,2013-04-29 21:12:00,
2013-04-29 17:17:00,62.6,55.2,29.96,SW,217,0.0,5.0,77,0.01,,,0.06,meteohub,2013-04-29 21:17:00,
2013-04-29 17:22:00,62.1,56.1,29.96,SW,217,0.0,5.0,81,0.01,,,0.06,meteohub,2013-04-29 21:22:00,
2013-04-29 17:27:00,61.7,56.1,29.97,WNW,284,1.0,3.0,82,0.01,,,0.06,meteohub,2013-04-29 21:27:00,
2013-04-29 17:32:00,61.5,54.9,29.97,SW,224,0.0,4.0,79,0.01,,,0.06,meteohub,2013-04-29 21:32:00,
2013-04-29 17:37:00,61.5,55.2,29.97,SW,226,2.0,4.0,80,0.01,,,0.06,meteohub,2013-04-29 21:37:00,
2013-04-29 17:42:00,61.5,56.7,29.97,ENE,76,0.0,4.0,84,0.01,,,0.06,meteohub,2013-04-29 21:42:00,
2013-04-29 17:47:00,61.5,55.6,29.97,East,79,0.0,3.0,81,0.01,,,0.06,meteohub,2013-04-29 21:47:00,
2013-04-29 17:52:00,62.1,56.1,29.97,East,79,0.0,3.0,81,0.01,,,0.06,meteohub,2013-04-29 21:52:00,
2013-04-29 17:57:00,62.6,55.2,29.97,SE,135,1.0,1.0,77,0.00,,,0.06,meteohub,2013-04-29 21:57:00,
2013-04-29 18:02:00,62.8,55.8,29.97,ENE,71,0.0,1.0,78,0.00,,,0.06,meteohub,2013-04-29 22:02:00,
2013-04-29 18:07:00,63.0,55.9,29.97,North,354,0.0,2.0,78,0.00,,,0.06,meteohub,2013-04-29 22:07:00,
2013-04-29 18:12:00,62.8,56.1,29.97,North,354,0.0,2.0,79,0.00,,,0.06,meteohub,2013-04-29 22:12:00,
2013-04-29 18:17:00,63.0,55.9,29.97,North,354,0.0,2.0,78,0.00,,,0.06,meteohub,2013-04-29 22:17:00,
2013-04-29 18:22:00,62.8,55.4,29.97,NNW,348,0.0,2.0,77,0.00,,,0.06,meteohub,2013-04-29 22:22:00,
2013-04-29 18:27:00,63.0,55.9,29.97,NNW,344,0.0,2.0,78,0.00,,,0.06,meteohub,2013-04-29 22:27:00,
2013-04-29 18:32:00,63.0,55.9,29.97,NNW,347,0.0,2.0,78,0.00,,,0.06,meteohub,2013-04-29 22:32:00,
2013-04-29 18:37:00,63.0,56.3,29.97,NNW,347,0.0,1.0,79,0.00,,,0.06,meteohub,2013-04-29 22:37:00,
2013-04-29 18:42:00,63.0,55.9,29.97,NNW,347,0.0,1.0,78,0.00,,,0.06,meteohub,2013-04-29 22:42:00,
2013-04-29 18:47:00,63.0,55.9,29.97,NNW,347,0.0,1.0,78,0.00,,,0.06,meteohub,2013-04-29 22:47:00,
2013-04-29 18:52:00,62.8,56.5,29.97,NNW,347,0.0,0.0,80,0.00,,,0.06,meteohub,2013-04-29 22:52:00,
2013-04-29 18:58:00,62.4,56.1,29.97,NNW,347,0.0,0.0,80,0.00,,,0.06,meteohub,2013-04-29 22:58:00,
2013-04-29 19:03:00,62.2,56.3,29.97,NNW,347,0.0,0.0,81,0.00,,,0.06,meteohub,2013-04-29 23:03:00,
2013-04-29 19:08:00,62.1,56.5,29.97,NNW,347,0.0,0.0,82,0.00,,,0.06,meteohub,2013-04-29 23:08:00,
2013-04-29 19:13:00,61.9,56.7,29.97,NNW,347,0.0,0.0,83,0.00,,,0.06,meteohub,2013-04-29 23:13:00,
2013-04-29 19:18:00,61.5,56.3,29.97,NNW,347,0.0,0.0,83,0.00,,,0.06,meteohub,2013-04-29 23:18:00,
2013-04-29 19:23:00,61.5,56.3,29.97,NNW,347,0.0,0.0,83,0.00,,,0.06,meteohub,2013-04-29 23:23:00,
2013-04-29 19:28:00,61.3,56.5,29.98,NNW,347,0.0,0.0,84,0.00,,,0.06,meteohub,2013-04-29 23:28:00,
2013-04-29 19:33:00,61.2,56.7,29.98,NNW,347,0.0,0.0,85,0.00,,,0.06,meteohub,2013-04-29 23:33:00,
2013-04-29 19:39:00,61.2,56.7,29.97,NNW,347,0.0,0.0,85,0.00,,,0.06,meteohub,2013-04-29 23:39:00,
2013-04-29 19:44:00,61.0,56.5,29.98,NNW,347,0.0,0.0,85,0.00,,,0.06,meteohub,2013-04-29 23:44:00,
2013-04-29 19:49:00,60.8,56.3,29.98,NNW,347,0.0,0.0,85,0.00,,,0.06,meteohub,2013-04-29 23:49:00,
2013-04-29 19:54:00,60.6,56.1,29.98,NNW,347,0.0,0.0,85,0.00,,,0.06,meteohub,2013-04-29 23:54:00,
2013-04-29 19:59:00,60.4,55.9,29.99,SE,139,0.0,0.0,85,0.00,,,0.06,meteohub,2013-04-29 23:59:00,
2013-04-29 20:04:00,60.4,55.9,29.99,SE,140,0.0,1.0,85,0.00,,,0.06,meteohub,2013-04-30 00:04:00,
2013-04-29 20:09:00,60.6,55.0,29.99,NW,306,0.0,1.0,82,0.00,,,0.06,meteohub,2013-04-30 00:09:00,
2013-04-29 20:15:00,61.0,55.8,29.99,NW,308,0.0,2.0,83,0.00,,,0.06,meteohub,2013-04-30 00:15:00,
2013-04-29 20:20:00,60.6,55.4,29.99,NW,307,0.0,2.0,83,0.00,,,0.06,meteohub,2013-04-30 00:20:00,
2013-04-29 20:25:00,60.4,55.6,29.99,WNW,284,0.0,2.0,84,0.00,,,0.06,meteohub,2013-04-30 00:25:00,
2013-04-29 20:30:00,60.4,55.6,29.99,WNW,283,0.0,0.0,84,0.00,,,0.06,meteohub,2013-04-30 00:30:00,
2013-04-29 20:35:00,60.3,55.4,30.00,WNW,284,0.0,1.0,84,0.00,,,0.06,meteohub,2013-04-30 00:35:00,
2013-04-29 20:40:00,60.1,55.2,30.00,WNW,284,0.0,1.0,84,0.00,,,0.06,meteohub,2013-04-30 00:40:00,
2013-04-29 20:46:00,60.3,55.4,30.00,ESE,118,0.0,2.0,84,0.00,,,0.06,meteohub,2013-04-30 00:46:00,
2013-04-29 20:51:00,60.3,55.0,30.00,ESE,119,0.0,2.0,83,0.00,,,0.06,meteohub,2013-04-30 00:51:00,
2013-04-29 20:56:00,60.3,55.0,30.00,SSE,160,1.0,2.0,83,0.00,,,0.06,meteohub,2013-04-30 00:56:00,
2013-04-29 21:01:00,60.3,54.7,30.00,ESE,113,1.0,2.0,82,0.00,,,0.06,meteohub,2013-04-30 01:01:00,
2013-04-29 21:06:00,60.4,54.5,30.00,ESE,112,1.0,4.0,81,0.00,,,0.06,meteohub,2013-04-30 01:06:00,
2013-04-29 21:11:00,60.4,54.5,30.00,East,89,4.0,6.0,81,0.00,,,0.06,meteohub,2013-04-30 01:11:00,
2013-04-29 21:16:00,60.4,54.5,30.01,ESE,113,2.0,7.0,81,0.00,,,0.06,meteohub,2013-04-30 01:16:00,
2013-04-29 21:22:00,60.4,54.3,30.01,ESE,114,3.0,8.0,80,0.00,,,0.06,meteohub,2013-04-30 01:22:00,
2013-04-29 21:27:00,60.4,54.3,30.01,SE,131,1.0,9.0,80,0.00,,,0.06,meteohub,2013-04-30 01:27:00,
2013-04-29 21:32:00,60.4,54.3,30.01,SSE,150,1.0,9.0,80,0.00,,,0.06,meteohub,2013-04-30 01:32:00,
2013-04-29 21:37:00,60.3,54.1,30.01,SE,135,2.0,9.0,80,0.00,,,0.06,meteohub,2013-04-30 01:37:00,
2013-04-29 21:42:00,60.3,54.1,30.01,East,88,1.0,7.0,80,0.00,,,0.06,meteohub,2013-04-30 01:42:00,
2013-04-29 21:47:00,60.1,54.0,30.02,SE,132,1.0,7.0,80,0.00,,,0.06,meteohub,2013-04-30 01:47:00,
2013-04-29 21:52:00,60.3,54.1,30.02,SE,129,2.0,7.0,80,0.00,,,0.06,meteohub,2013-04-30 01:52:00,
2013-04-29 21:57:00,60.1,54.0,30.02,ESE,110,2.0,4.0,80,0.00,,,0.06,meteohub,2013-04-30 01:57:00,
2013-04-29 22:02:00,60.1,54.0,30.02,South,186,1.0,4.0,80,0.00,,,0.06,meteohub,2013-04-30 02:02:00,
2013-04-29 22:07:00,59.9,53.8,30.02,WNW,293,0.0,4.0,80,0.00,,,0.06,meteohub,2013-04-30 02:07:00,
2013-04-29 22:13:00,59.7,54.0,30.02,SW,235,1.0,3.0,81,0.00,,,0.06,meteohub,2013-04-30 02:13:00,
2013-04-29 22:18:00,59.5,53.8,30.02,SE,130,0.0,4.0,81,0.00,,,0.06,meteohub,2013-04-30 02:18:00,
2013-04-29 22:23:00,59.4,53.8,30.02,SE,129,0.0,4.0,82,0.00,,,0.06,meteohub,2013-04-30 02:23:00,
2013-04-29 22:28:00,59.4,53.8,30.02,ESE,104,0.0,4.0,82,0.00,,,0.06,meteohub,2013-04-30 02:28:00,
2013-04-29 22:33:00,59.4,53.8,30.02,SE,139,2.0,4.0,82,0.00,,,0.06,meteohub,2013-04-30 02:33:00,
2013-04-29 22:38:00,59.4,53.8,30.02,SE,135,0.0,6.0,82,0.00,,,0.06,meteohub,2013-04-30 02:38:00,
2013-04-29 22:43:00,59.2,53.6,30.02,ESE,107,1.0,6.0,82,0.00,,,0.06,meteohub,2013-04-30 02:43:00,
2013-04-29 22:48:00,59.2,54.0,30.02,SE,129,1.0,7.0,83,0.00,,,0.06,meteohub,2013-04-30 02:48:00,
2013-04-29 22:53:00,59.0,53.8,30.02,East,82,3.0,7.0,83,0.00,,,0.06,meteohub,2013-04-30 02:53:00,
2013-04-29 22:58:00,58.8,53.6,30.02,WSW,249,2.0,7.0,83,0.00,,,0.06,meteohub,2013-04-30 02:58:00,
2013-04-29 23:03:00,59.0,53.6,30.02,SSE,158,5.0,9.0,82,0.00,,,0.06,meteohub,2013-04-30 03:03:00,
2013-04-29 23:08:00,59.0,53.6,30.02,ESE,102,1.0,9.0,82,0.00,,,0.06,meteohub,2013-04-30 03:08:00,
2013-04-29 23:13:00,58.8,53.4,30.02,SSE,159,0.0,7.0,82,0.00,,,0.06,meteohub,2013-04-30 03:13:00,
2013-04-29 23:19:00,58.8,53.4,30.01,SE,131,2.0,6.0,82,0.00,,,0.06,meteohub,2013-04-30 03:19:00,
2013-04-29 23:24:00,58.8,53.4,30.02,WNW,298,1.0,5.0,82,0.00,,,0.06,meteohub,2013-04-30 03:24:00,
2013-04-29 23:29:00,58.5,53.2,30.02,East,82,0.0,5.0,83,0.00,,,0.06,meteohub,2013-04-30 03:29:00,
2013-04-29 23:34:00,58.3,53.1,30.02,WNW,302,0.0,5.0,83,0.00,,,0.06,meteohub,2013-04-30 03:34:00,
2013-04-29 23:39:00,58.3,52.9,30.02,WSW,242,0.0,4.0,82,0.00,,,0.06,meteohub,2013-04-30 03:39:00,
2013-04-29 23:44:00,57.9,52.7,30.02,NW,304,0.0,4.0,83,0.00,,,0.06,meteohub,2013-04-30 03:44:00,
2013-04-29 23:49:00,57.7,52.7,30.02,NW,315,0.0,4.0,83,0.00,,,0.06,meteohub,2013-04-30 03:49:00,
2013-04-29 23:54:00,57.6,52.7,30.02,ESE,115,0.0,2.0,84,0.00,,,0.06,meteohub,2013-04-30 03:54:00,